Flag for U.S.A. Weather past 2 weeks in Evansville, Indiana, U.S.A.

Now
71 °F

Fog.


Feels Like: 67 °F
Forecast: 68 / 88 °F
Wind: No wind

Location: Evansville Regional Airport

Current Time: Jul 6, 2015 at 8:35:59 AM

Latest Report: Jul 6, 2015 at 6:54 AM


Visibility: 3 mi

Pressure: 30.08 "Hg

Humidity: 93%

Dew point: 69 °F

Location of EvansvilleLocation

Historic Weather in Evansville — Graph

°F

Evansville temperature yesterday

Maximum temperature yesterday: 84 °F (at 4:54 PM)
Minimum temperature yesterday: 70 °F (at 5:54 AM)
Average temperature yesterday: 77 °F

Past Weeks' High & Low Weather Summary

 TemperatureHumidityPressure
High91 °F (Jun 25, 2:54 PM)97% (Jul 2, 3:54 AM)30.16 "Hg (Jul 2, 3:54 AM)
Low57 °F (Jun 28, 5:54 AM)42% (Jun 28, 9:54 AM)29.77 "Hg (Jun 29, 3:54 AM)
Average76 °F76%29.94 "Hg
* Reported Jun 21 6:54 AM — Jul 6 6:54 AM, Evansville, Weather by CustomWeather, © 2015

Note: Actual official high and low records may vary slightly from our data, if they occured in-between our weather recording intervals... More about our weather records

Advertising

Evansville weather history for previous 24 hours

 ConditionsComfort  
Time TempWeatherWind HumidityBarometerVisibility
6:54 AM
Mon, Jul 6
71 °FFog.No wind93%30.08 "Hg3 mi
5:54 AM69 °FFog.No wind93%30.07 "Hg2 mi
4:54 AM70 °FFog.No wind90%30.06 "Hg3 mi
3:54 AM70 °FFog.No wind93%30.03 "Hg4 mi
2:54 AM71 °FFog.No wind90%30.02 "Hg4 mi
1:54 AM72 °FFog.No wind87%30.02 "Hg5 mi
12:54 AM72 °FFog.No wind87%30.03 "Hg5 mi
11:54 PM
Sun, Jul 5
73 °FFog.No wind88%30.03 "Hg5 mi
10:54 PM74 °FClear.No wind85%30.05 "Hg5 mi
9:54 PM76 °FClear.No wind80%30.06 "Hg5 mi
8:54 PM77 °FPassing clouds.No wind79%30.04 "Hg5 mi
7:54 PM80 °FSunny.No wind67%30.02 "Hg5 mi
6:54 PM82 °FPartly sunny.3 mph65%30.01 "Hg5 mi
5:54 PM83 °FHaze.6 mph61%30.01 "Hg5 mi
4:54 PM84 °FSunny.3 mph57%30.02 "Hg5 mi
3:54 PM83 °FScattered clouds.5 mph61%30.04 "Hg6 mi
2:54 PM83 °FPartly sunny.N/A61%30.05 "Hg7 mi
1:54 PM82 °FScattered clouds.3 mph65%30.05 "Hg6 mi
12:54 PM82 °FBroken clouds.9 mph67%30.05 "Hg6 mi
11:54 AM80 °FScattered clouds.7 mph71%30.06 "Hg5 mi
10:54 AM80 °FScattered clouds.3 mph71%30.06 "Hg5 mi
9:54 AM76 °FSunny.No wind82%30.06 "Hg4 mi
8:54 AM73 °FSunny.No wind84%30.06 "Hg5 mi
Weather by CustomWeather, © 2015

See weather overviewHow to use our weather pages